Ridgeville, SC

5:20 PM EST on February 07, 2016 (GMT -0500)
Summerville

Weather History for KDYB - May, 2013

Change the Weather History Date:

Monday, May 13, 2013

  Actual Average (KCHS) Record (KCHS)
Temperature  
Mean Temperature 62 °F 72 °F  
Max Temperature 73 °F 83 °F 95 °F (2000)
Min Temperature 51 °F 61 °F 44 °F (1941)
Degree Days  
Heating Degree Days 3 0  
Month to date heating degree days 8  
Since 1 July heating degree days 1971  
Cooling Degree Days 0 7  
Month to date cooling degree days 76  
Year to date cooling degree days 194  
Growing Degree Days 12 (Base 50)    
Moisture  
Dew Point 44 °F    
Average Humidity 57    
Maximum Humidity 94    
Minimum Humidity 29    
Precipitation  
Precipitation 0.00 in 0.08 in 1.75 in (1954)
Month to date precipitation 1.18  
Year to date precipitation 14.47  
Sea Level Pressure  
Sea Level Pressure 30.08 in    
Wind  
Wind Speed 5 mph (NNW)    
Max Wind Speed 14 mph    
Max Gust Speed 18 mph    
Visibility 10 miles    
Events      
T = Trace of Precipitation, MM = Missing Value Source: NWS Daily Summary

Daily Weather History Graph

Daily Weather History Graph

Search for Another Location

Airport or City:

Trip Planner

Search our weather history database for the weather conditions in past years. The results will help you decide how hot, cold, wet, or windy it might be!

Date:

Astronomy

May. 13, 2013 Rise Set
Actual Time 6:22 AM EDT 8:12 PM EDT
Civil Twilight 5:55 AM EDT 8:39 PM EDT
Nautical Twilight 5:23 AM EDT 9:12 PM EDT
Astronomical Twilight 4:48 AM EDT 9:47 PM EDT
Moon 9:08 AM EDT (5/13) 11:20 PM EDT (5/13)
Length of Visible Light 14h 43m
Length of Day
13h 49m
Waxing Crescent, 12% of the Moon is Illuminated
May 13
Waxing Crescent
May 18
First Quarter
May 25
Full
May 31
Last Quarter
Jun 8
New

Hourly Weather History & Observations

Time (EDT) Temp. Dew Point Humidity Pressure Visibility Wind Dir Wind Speed Gust Speed Precip Events Conditions
12:15 AM 59.0 °F 53.6 °F 82% 30.02 in 10.0 mi West 4.6 mph - N/A   Clear
12:35 AM 60.8 °F 48.2 °F 63% 30.02 in 10.0 mi WNW 5.8 mph - N/A   Clear
12:55 AM 60.8 °F 46.4 °F 59% 30.02 in 10.0 mi West 3.5 mph - N/A   Clear
1:15 AM 60.8 °F 46.4 °F 59% 30.02 in 10.0 mi WNW 4.6 mph - N/A   Clear
1:35 AM 60.8 °F 44.6 °F 55% 30.02 in 10.0 mi West 4.6 mph - N/A   Clear
1:55 AM 59.0 °F 48.2 °F 67% 30.02 in 10.0 mi Calm Calm - N/A   Clear
2:15 AM 59.0 °F 44.6 °F 59% 30.01 in 10.0 mi West 3.5 mph - N/A   Clear
2:35 AM 57.2 °F 44.6 °F 63% 30.01 in 10.0 mi West 3.5 mph - N/A   Clear
2:55 AM 55.4 °F 46.4 °F 72% 30.01 in 10.0 mi Calm Calm - N/A   Clear
3:15 AM 55.4 °F 46.4 °F 72% 30.01 in 10.0 mi Calm Calm - N/A   Clear
3:35 AM 55.4 °F 44.6 °F 67% 30.02 in 10.0 mi NW 4.6 mph - N/A   Clear
3:55 AM 55.4 °F 44.6 °F 67% 30.01 in 10.0 mi NNW 3.5 mph - N/A   Clear
4:15 AM 53.6 °F 44.6 °F 72% 30.02 in 10.0 mi North 3.5 mph - N/A   Clear
4:35 AM 53.6 °F 46.4 °F 77% 30.03 in 10.0 mi North 3.5 mph - N/A   Clear
4:55 AM 53.6 °F 46.4 °F 77% 30.03 in 10.0 mi Calm Calm - N/A   Clear
5:15 AM 51.8 °F 46.4 °F 82% 30.03 in 10.0 mi Calm Calm - N/A   Clear
5:35 AM 51.8 °F 46.4 °F 82% 30.04 in 10.0 mi Calm Calm - N/A   Clear
5:55 AM 51.8 °F 46.4 °F 82% 30.05 in 10.0 mi Calm Calm - N/A   Clear
6:15 AM 51.8 °F 46.4 °F 82% 30.06 in 10.0 mi Calm Calm - N/A   Clear
6:35 AM 51.8 °F 44.6 °F 76% 30.07 in 10.0 mi North 4.6 mph - N/A   Clear
6:55 AM 51.8 °F 44.6 °F 76% 30.07 in 10.0 mi North 3.5 mph - N/A   Clear
7:15 AM 53.6 °F 46.4 °F 77% 30.07 in 10.0 mi North 3.5 mph - N/A   Clear
7:35 AM 53.6 °F 44.6 °F 72% 30.08 in 10.0 mi North 3.5 mph - N/A   Clear
7:55 AM 55.4 °F 46.4 °F 72% 30.09 in 10.0 mi North 3.5 mph - N/A   Clear
8:15 AM 55.4 °F 44.6 °F 67% 30.09 in 10.0 mi North 4.6 mph - N/A   Clear
8:35 AM 57.2 °F 44.6 °F 63% 30.11 in 10.0 mi North 8.1 mph - N/A   Clear
8:55 AM 59.0 °F 44.6 °F 59% 30.12 in 10.0 mi North 8.1 mph - N/A   Clear
9:15 AM 59.0 °F 44.6 °F 59% 30.13 in 10.0 mi North 9.2 mph - N/A   Clear
9:35 AM 60.8 °F 42.8 °F 52% 30.13 in 10.0 mi North 9.2 mph - N/A   Clear
9:55 AM 60.8 °F 42.8 °F 52% 30.14 in 10.0 mi North 11.5 mph 16.1 mph N/A   Clear
10:15 AM 62.6 °F 42.8 °F 48% 30.13 in 10.0 mi North 13.8 mph - N/A   Clear
10:35 AM 62.6 °F 39.2 °F 42% 30.14 in 10.0 mi North 11.5 mph 16.1 mph N/A   Clear
10:55 AM 64.4 °F 41.0 °F 42% 30.15 in 10.0 mi NNE 9.2 mph 16.1 mph N/A   Clear
11:15 AM 64.4 °F 39.2 °F 40% 30.15 in 10.0 mi North 13.8 mph 18.4 mph N/A   Clear
11:35 AM 68.0 °F 39.2 °F 35% 30.14 in 10.0 mi North 11.5 mph 18.4 mph N/A   Clear
11:55 AM 68.0 °F 37.4 °F 33% 30.15 in 10.0 mi North 13.8 mph - N/A   Clear
12:15 PM 68.0 °F 39.2 °F 35% 30.14 in 10.0 mi NNE 6.9 mph 18.4 mph N/A   Clear
12:35 PM 68.0 °F 41.0 °F 37% 30.14 in 10.0 mi North 8.1 mph 17.3 mph N/A   Clear
12:55 PM 69.8 °F 41.0 °F 35% 30.13 in 10.0 mi North 9.2 mph 16.1 mph N/A   Clear
1:15 PM 69.8 °F 41.0 °F 35% 30.13 in 10.0 mi NNE 10.4 mph 16.1 mph N/A   Clear
1:35 PM 69.8 °F 41.0 °F 35% 30.12 in 10.0 mi NNE 11.5 mph 17.3 mph N/A   Clear
1:55 PM 69.8 °F 41.0 °F 35% 30.12 in 10.0 mi NW 10.4 mph - N/A   Clear
2:15 PM 71.6 °F 41.0 °F 33% 30.11 in 10.0 mi North 5.8 mph 18.4 mph N/A   Clear
2:35 PM 71.6 °F 42.8 °F 35% 30.11 in 10.0 mi NW 10.4 mph 16.1 mph N/A   Clear
2:55 PM 71.6 °F 41.0 °F 33% 30.10 in 10.0 mi WNW 6.9 mph 16.1 mph N/A   Clear
3:15 PM 71.6 °F 41.0 °F 33% 30.10 in 10.0 mi NW 10.4 mph 17.3 mph N/A   Clear
3:35 PM 73.4 °F 41.0 °F 31% 30.09 in 10.0 mi NW 10.4 mph 17.3 mph N/A   Clear
4:35 PM 73.4 °F 39.2 °F 29% 30.07 in 10.0 mi West 11.5 mph - N/A   Clear
4:55 PM 73.4 °F 39.2 °F 29% 30.06 in 10.0 mi WNW 6.9 mph - N/A   Clear
5:15 PM 73.4 °F 41.0 °F 31% 30.06 in 10.0 mi West 6.9 mph 16.1 mph N/A   Clear
5:35 PM 73.4 °F 41.0 °F 31% 30.05 in 10.0 mi NW 11.5 mph - N/A   Clear
5:55 PM 73.4 °F 39.2 °F 29% 30.05 in 10.0 mi WNW 6.9 mph 17.3 mph N/A   Clear
6:15 PM 73.4 °F 39.2 °F 29% 30.05 in 10.0 mi NW 8.1 mph - N/A   Clear
6:35 PM 73.4 °F 41.0 °F 31% 30.05 in 10.0 mi West 4.6 mph - N/A   Clear
6:55 PM 71.6 °F 39.2 °F 31% 30.05 in 10.0 mi NW 6.9 mph - N/A   Clear
7:35 PM 69.8 °F 41.0 °F 35% 30.07 in 10.0 mi NW 3.5 mph - N/A   Clear
8:15 PM 62.6 °F 46.4 °F 55% 30.08 in 10.0 mi Calm Calm - N/A   Clear
8:35 PM 60.8 °F 48.2 °F 63% 30.09 in 10.0 mi Calm Calm - N/A   Clear
8:55 PM 59.0 °F 46.4 °F 63% 30.10 in 10.0 mi Calm Calm - N/A   Clear
9:15 PM 55.4 °F 48.2 °F 77% 30.12 in 10.0 mi Calm Calm - N/A   Clear
9:35 PM 55.4 °F 48.2 °F 77% 30.12 in 10.0 mi Calm Calm - N/A   Clear
9:55 PM 55.4 °F 48.2 °F 77% 30.13 in 10.0 mi Calm Calm - N/A   Clear
10:15 PM 53.6 °F 50.0 °F 88% 30.14 in 10.0 mi Calm Calm - N/A   Clear
10:35 PM 53.6 °F 50.0 °F 88% 30.14 in 10.0 mi Calm Calm - N/A   Clear
10:55 PM 53.6 °F 50.0 °F 88% 30.15 in 10.0 mi Calm Calm - N/A   Clear
11:15 PM 51.8 °F 50.0 °F 94% 30.15 in 10.0 mi Calm Calm - N/A   Clear
11:35 PM 51.8 °F 50.0 °F 94% 30.15 in 10.0 mi Calm Calm - N/A   Clear
11:55 PM 51.8 °F 48.2 °F 88% 30.16 in 10.0 mi Calm Calm - N/A   Clear